PEGASUS DEB, 24007

Orbit data source: Space-Track

PEGASUS DEB, 24007 is space debris in LEO originally from a launch on Thu, 19 May 1994 UTC launched from the Air Force Western Test Range (AFWTR). Debris objects in space refer to the collection of defunct objects orbiting the Earth. Examples of debris include non-operational satellites, rocket bodies, and fragments generated from explosions, collisions, or faulty payload assembly.

Loading next visibility...
Identifier
24007, 1994-029BC
Orbit
LEO
Country
Flag of USUS
Related business
Manufacturer
Unknown
Mission
Spacecraft
Bus & Motor
Unknown
Mass
Unknown
Launch date (UTC)
1994-05-19 (32 years ago)
Launch vehicle
Unknown
Launch site
Air Force Western Test Range (AFWTR)
Object type
Payload
Rocket body
Debris
Shape & HBR
Unknown shape, 0.1 m
Radar Cross Section
Medium (>0.1 m² and <1 m²)

Expand to show TLE details & history
Last TLE update: 10 hours ago

TLE from 10 hours ago
0 PEGASUS DEB
1 24007U 94029BC  26220.02879627  .00001344  00000-0  92406-4 0  9997
2 24007  81.9181 212.4740 0063146  59.1902 358.3549 15.03500879632689
Epoch: 2026-08-08T00:41Z
TLE epoch observation values (Epoch: 2026-08-08T00:41:27.997Z)
Latitude
56.7447°
Longitude
-102.00271°
Altitude
521.846 km
Speed
7.632 km/s
True Right ascension
14h 59m 38s
True Declination
56° 34' 53"
Sunlit
Object was in daylight at epoch
Visualization orbit readout
Latitude
Unknown
Longitude
Unknown
Altitude
Unknown
Speed
Unknown
Apparent Right ascension
Unknown
Apparent Declination
Unknown
Sunlit
N/A
Visualization observer readout
Local Sidereal Time
01:09:36
Azimuth
Unknown
Elevation
Unknown
Doppler factor
Unknown
Orbital elements
Apogee altitude
596.897 km
Perigee altitude
509.361 km
Semi-major axis
6,931.266 km
Eccentricity
0.00631
Inclination
81.9181°
RAAN
212.474°
Arg. of periapsis
59.1902°
True anomaly
358.33396°
Mean anomaly
358.3549°
Eccentric anomaly
358.34445°
Mean motion
3.76118 °/min
Orbital period
95.71 mins
BSTAR
0.000092406
Loading maneuver chart data...
Computing Atmospheric mass density...
Loading historical data...
Loading historical data...
Loading historical data...
Loading historical data...
Loading historical data...
Loading historical data...
Loading historical data...

Documentation

Showing up to 5 results
|